Location: Niagara
(43.2500°N, 79.0670°W)
Time: 11:45:24
(UTC-04:00)

Vanguard 2 - Visible Passes

Search period start: 23 July 2018 00:00
Search period end: 02 August 2018 00:00
Orbit: 553 x 2939 km, 32.9° (Epoch: 22 July)

Date Brightness Start Highest point End Pass type
(mag) Time Alt. Az. Time Alt. Az. Time Alt. Az.
23 Jul 10.6 00:19:27 10° W 00:34:25 35° SSW 00:38:21 32° S visible
23 Jul 11.4 02:38:36 10° WSW 02:39:42 11° WSW 02:39:42 11° WSW visible
23 Jul 10.6 22:25:27 10° W 22:41:24 51° SSW 22:53:08 22° SE visible
24 Jul 10.8 00:38:12 10° W 00:51:57 29° SW 00:54:29 28° SSW visible
24 Jul 10.6 22:43:41 10° W 22:59:16 46° SSW 23:09:19 25° SSE visible
25 Jul 11.0 00:57:24 10° W 01:09:24 23° SW 01:10:40 23° SW visible
25 Jul 10.5 20:51:11 10° W 21:05:39 56° S 21:22:49 10° ESE visible
25 Jul 10.7 23:02:02 10° W 23:17:04 40° SSW 23:25:33 26° SSE visible
26 Jul 11.3 01:17:26 10° W 01:26:46 17° SW 01:26:55 17° SW visible
26 Jul 10.6 21:09:15 10° W 21:23:40 53° SSW 21:40:29 10° SE visible
26 Jul 10.8 23:20:34 10° W 23:34:46 34° SSW 23:41:51 26° S visible
27 Jul 11.5 01:39:55 10° WSW 01:43:12 11° SW 01:43:12 11° SW visible
27 Jul 10.7 21:27:23 10° W 21:41:38 48° SSW 21:56:49 13° SE visible
27 Jul 11.0 23:39:24 10° W 23:52:24 27° SW 23:58:11 23° SSW visible
28 Jul 10.8 21:45:37 10° W 21:59:33 43° SSW 22:13:12 16° SE visible
28 Jul 11.2 23:58:46 10° W 00:09:57 21° SW 00:14:34 19° SSW visible
29 Jul 10.9 22:04:00 10° W 22:17:24 37° SSW 22:29:39 17° SSE visible
30 Jul 11.4 00:19:11 10° WSW 00:27:28 15° SW 00:31:02 14° SSW visible
30 Jul 11.1 22:22:36 10° W 22:35:12 30° SSW 22:46:10 16° SSE visible
31 Jul 11.3 22:41:35 10° W 22:52:56 24° SW 23:02:45 15° S visible
01 Aug 10.9 20:48:23 10° W 21:00:13 38° SSW 21:15:28 10° SE visible
01 Aug 11.5 23:01:15 10° WSW 23:10:38 18° SW 23:19:24 12° S visible
